This is the latest recevied weather packets stored in our database for station/object KA3WVU. If no packets are shown the sender has not sent any weather packets the latest 10 day(s).
| Time | Temp. | Humidity | Pressure | Rain* | Wind** | Luminosity | Snow |
|---|---|---|---|---|---|---|---|
| 1777560199 | 5.56° C | 99% | 1008.9 hPa | 0 mm | - | 190 W/m² | - |
| 1777559896 | 5.56° C | 99% | 1009 hPa | 0 mm | - | 169 W/m² | - |
| 1777559590 | 5.56° C | 99% | 1009 hPa | 0 mm | - | 178 W/m² | - |
| 1777559289 | 5° C | 99% | 1008.9 hPa | 0 mm | - | 188 W/m² | - |
| 1777558984 | 5.56° C | 99% | 1009 hPa | 0 mm | - | 156 W/m² | - |
| 1777558680 | 5.56° C | 99% | 1009 hPa | 0 mm | - | 140 W/m² | - |
| 1777558376 | 5° C | 99% | 1009 hPa | 0 mm | - | 83 W/m² | - |
| 1777558073 | 5° C | 99% | 1008.8 hPa | 0 mm | - | 135 W/m² | - |
| 1777557769 | 5° C | 99% | 1008.8 hPa | 0 mm | - | 105 W/m² | - |
| 1777557466 | 5° C | 99% | 1008.7 hPa | 0 mm | - | 147 W/m² | - |
| 1777557162 | 5° C | 99% | 1009 hPa | 0 mm | - | 115 W/m² | - |
| 1777556858 | 5° C | 99% | 1008.8 hPa | 0 mm | - | 111 W/m² | - |
| 1777556555 | 5° C | 99% | 1008.8 hPa | 0 mm | - | 111 W/m² | - |
| 1777556253 | 5° C | 99% | 1008.8 hPa | 0 mm | - | 87 W/m² | - |
| 1777555950 | 5° C | 99% | 1008.7 hPa | 0 mm | - | 73 W/m² | - |
| 1777555645 | 5° C | 99% | 1008.8 hPa | 0 mm | - | 97 W/m² | - |
| 1777555337 | 4.44° C | 99% | 1008.8 hPa | 0 mm | - | 95 W/m² | - |
| 1777555034 | 4.44° C | 99% | 1008.6 hPa | 0 mm | - | 88 W/m² | - |
| 1777554731 | 4.44° C | 99% | 1008.7 hPa | 0 mm | - | 67 W/m² | - |
| 1777554428 | 4.44° C | 99% | 1008.7 hPa | 0 mm | - | 61 W/m² | - |
| 1777554124 | 4.44° C | 99% | 1008.7 hPa | 0 mm | - | 53 W/m² | - |
| 1777553821 | 4.44° C | 99% | 1008.8 hPa | 0 mm | - | 44 W/m² | - |
| 1777553518 | 4.44° C | 99% | 1008.7 hPa | 0 mm | - | 30 W/m² | - |
| 1777553213 | 4.44° C | 99% | 1008.7 hPa | 0 mm | - | 41 W/m² | - |
| 1777552909 | 4.44° C | 99% | 1008.6 hPa | 0 mm | - | 38 W/m² | - |
* Rain latest hour (hover to see other rain measurements)
** Current wind speed in m/s (hover to see current wind gust speed)